Wind_Speed
7 11 9 9 9 7 8 7 7 9 10 10 10 10 11 12 14 14 16 17 18 19 19 18 18 18 18 19 20 20 20 21 21 20 18 17 17 17 19 19 18 19 20
8 8 9 9 9 8 7 7 8 9 9 10 10 11 11 12 13 15 16 17 17 18 18 18 18 17 17 17 17 18 19 18 18 19 18 17 16 17 18 18 18 19 19
10 8 9 10 9 8 7 7 8 8 9 10 10 10 11 11 12 14 15 16 16 17 17 17 17 17 17 17 16 16 16 15 15 16 17 16 15 15 17 17 16 16 16
8 8 8 10 10 9 8 7 8 9 9 9 10 10 11 11 11 12 13 14 14 15 16 16 16 16 16 15 13 14 14 13 12 12 14 14 13 13 14 14 13 13 12
7 9 9 9 10 10 9 8 8 9 9 9 10 10 11 11 11 12 13 14 14 14 15 15 15 14 14 14 12 10 10 10 9 10 11 11 12 11 11 11 10 10 10
7 8 9 9 10 11 10 9 8 8 9 9 10 10 11 11 11 11 12 12 11 11 12 12 12 13 12 13 11 9 8 8 6 8 10 10 12 11 10 10 9 10 9
6 7 8 9 10 11 11 10 9 9 9 9 9 10 10 11 11 10 9 9 9 9 10 10 11 11 10 11 12 10 10 10 9 9 10 10 10 10 9 8 8 8 7
6 4 7 7 9 10 12 12 11 10 10 10 9 8 9 10 11 11 10 9 8 8 8 8 8 8 7 8 9 10 7 9 9 11 10 10 11 11 9 7 6 5 4
5 3 5 6 6 9 11 12 12 12 11 11 10 9 8 10 10 11 11 9 7 6 6 6 6 6 6 6 9 11 12 9 10 11 10 11 11 11 10 8 6 5 5
3 3 3 5 6 6 6 11 13 14 13 12 12 11 10 10 9 9 10 10 8 7 6 6 5 5 4 5 8 10 10 11 10 8 8 7 7 7 7 6 7 7 7
2 5 4 5 4 5 6 5 10 14 15 15 14 13 12 11 10 9 9 9 9 7 7 5 4 4 3 3 4 5 7 7 6 5 6 5 4 3 3 5 5 5 5
5 5 7 5 4 5 4 3 3 7 12 15 15 15 14 14 13 12 11 10 10 9 8 7 5 4 3 1 2 4 4 4 3 2 2 4 5 5 5 5 6 6 6
8 10 7 5 3 3 2 5 3 2 5 12 16 17 17 16 16 14 14 12 12 10 10 9 9 9 8 6 6 5 6 5 5 7 4 4 6 7 6 8 7 6 7
7 11 7 4 2 2 1 2 8 6 4 4 8 16 19 18 17 17 16 15 14 14 14 13 13 13 12 11 10 9 9 9 8 9 10 8 8 9 10 10 10 10 9
9 9 8 7 6 5 5 5 6 10 8 8 6 7 13 20 20 20 19 19 18 18 17 17 16 16 15 15 14 12 11 11 10 10 11 11 11 11 11 12 12 13 14
15 11 11 10 10 11 10 9 8 10 13 12 12 9 8 11 18 23 23 23 22 21 21 21 20 20 19 19 18 15 14 13 13 12 13 13 13 12 12 14 14 13 14
15 14 14 15 15 16 15 14 13 11 14 16 15 15 14 12 12 15 23 26 26 25 25 25 24 23 23 22 21 19 17 16 16 16 16 16 16 17 16 16 17 16 16
19 19 19 19 20 21 20 19 17 16 15 17 18 18 19 19 17 15 16 22 27 29 29 28 27 26 25 25 24 20 21 22 21 19 19 18 19 21 20 19 20 19 19
22 21 22 24 26 25 23 22 20 20 19 18 20 21 21 23 24 22 19 18 23 28 30 31 31 29 28 27 26 23 22 24 24 23 21 20 22 22 22 22 22 23 22
25 23 25 21 26 28 26 24 24 24 22 18 15 17 22 25 27 28 27 23 22 24 27 28 30 31 30 29 28 28 27 25 26 25 23 23 23 23 23 24 25 25 23
27 29 28 22 18 22 24 25 24 20 18 18 18 20 21 25 28 31 32 30 27 25 24 25 26 28 29 29 30 30 31 29 28 25 22 21 22 24 24 24 25 24 24
25 27 26 26 24 19 16 14 18 15 19 22 25 27 27 27 30 33 33 33 32 31 27 25 26 23 23 23 29 31 31 27 25 22 22 22 22 21 21 22 23 24 25
28 28 25 22 26 24 22 20 19 19 21 24 25 27 25 25 26 30 34 33 35 35 32 29 27 28 25 22 23 26 27 24 21 22 23 24 23 22 23 25 26 26 27
34 31 31 26 25 27 25 25 25 24 25 25 28 26 27 28 29 29 30 33 35 38 37 31 30 29 29 28 27 28 27 26 27 27 25 25 25 24 25 28 28 30 32
36 38 34 31 28 30 27 25 27 28 26 28 28 26 26 26 30 31 32 33 34 38 38 36 34 33 30 31 32 31 31 32 31 31 29 27 27 27 27 30 31 29 31
29 36 33 32 30 29 29 27 27 26 28 30 30 26 24 25 26 30 28 29 30 37 40 38 37 36 33 32 33 35 36 36 36 35 32 29 29 32 27 28 31 30 30
Wind_Direction
137 144 161 144 139 129 119 116 114 113 117 123 123 122 121 118 120 121 119 120 122 124 125 123 120 119 115 112 111 108 105 102 98 92 89 87 84 84 83 81 81 81 81
138 133 160 160 151 143 127 123 118 112 109 112 120 126 126 126 124 122 120 124 127 125 124 122 119 114 110 105 101 103 100 100 103 102 96 88 83 79 79 76 75 74 73
122 133 162 169 159 158 145 131 126 118 111 107 112 122 124 124 124 126 128 130 130 127 125 122 118 113 107 104 105 101 100 102 103 106 103 96 90 87 83 80 76 76 77
108 139 164 176 166 171 164 146 136 126 120 116 112 117 125 127 129 131 134 133 129 125 121 115 111 109 108 106 101 102 109 112 112 107 102 99 91 85 82 80 79 78 77
100 141 168 179 176 178 177 165 151 138 130 127 118 118 125 131 133 129 128 125 121 115 110 107 105 101 100 97 97 107 113 112 117 113 106 99 91 84 81 79 77 74 70
105 137 165 177 185 186 185 182 170 156 143 136 129 128 123 123 132 131 127 123 117 114 109 104 96 89 88 91 93 105 110 108 117 116 108 98 93 87 81 71 63 58 52
92 121 152 171 187 193 191 194 188 177 161 152 140 137 134 128 125 128 129 126 121 114 108 103 100 99 98 100 102 102 115 119 112 102 93 90 84 78 72 65 57 46 44
94 110 133 147 174 196 198 202 202 194 185 171 159 151 144 137 135 130 129 129 125 118 113 110 103 103 103 97 96 91 84 111 108 97 88 86 84 77 72 67 60 40 26
83 125 141 131 142 183 201 207 208 210 204 194 181 174 165 149 146 141 140 139 134 135 128 120 113 106 99 92 89 90 92 95 95 87 85 82 81 81 72 62 55 46 29
112 132 180 158 135 143 181 206 212 215 217 210 203 193 187 176 166 153 149 144 146 145 138 129 120 104 90 68 71 83 90 86 89 91 85 80 79 71 64 50 41 32 32
179 166 183 192 172 142 134 189 210 216 222 220 215 210 202 197 191 183 175 162 161 166 164 155 150 148 127 73 57 55 67 73 88 78 64 49 44 59 48 27 21 18 19
270 184 146 134 191 190 167 157 193 214 223 229 225 220 213 209 206 204 199 193 191 192 195 194 206 217 218 246 323 338 357 15 8 42 47 3 332 334 343 335 339 350 342
247 188 154 137 103 84 148 231 217 192 207 223 227 227 223 221 218 219 217 212 212 209 214 217 223 233 236 242 256 272 290 305 313 316 320 319 305 313 332 319 319 317 308
295 203 193 189 232 290 290 338 242 235 234 220 224 230 232 230 230 226 226 226 223 221 223 225 231 239 247 247 249 262 282 293 303 308 306 309 309 308 315 313 315 304 307
294 264 218 228 248 264 284 280 275 245 251 247 237 231 238 237 233 233 232 232 231 234 234 236 238 242 246 254 254 255 264 275 285 293 300 300 299 295 298 300 302 301 302
296 281 245 244 257 266 260 278 274 256 248 252 254 248 243 242 241 239 235 236 236 238 240 241 244 248 250 253 256 256 256 264 269 268 273 278 280 282 281 283 288 290 295
286 278 273 260 264 265 261 262 269 265 255 255 259 259 256 254 251 248 245 239 240 240 240 243 246 251 256 261 264 266 266 261 265 268 269 272 277 280 278 278 280 283 286
269 278 280 270 266 263 261 258 264 265 262 259 259 262 265 262 258 258 254 247 242 242 244 245 248 251 256 260 263 262 264 269 268 271 272 275 278 279 278 277 276 277 279
263 272 278 275 267 260 261 252 256 262 259 261 260 260 261 264 262 260 256 251 247 245 245 248 249 250 253 259 263 262 260 265 273 275 277 275 274 275 276 276 276 278 280
259 259 264 270 257 257 257 247 253 255 254 258 264 270 272 268 264 262 259 252 245 249 247 246 251 254 254 254 257 259 260 261 262 268 274 277 277 278 275 276 276 277 275
257 252 260 256 251 248 257 256 255 254 259 262 270 275 277 268 266 263 260 255 248 246 252 251 247 251 252 254 254 252 251 252 255 259 265 268 273 273 275 273 272 273 274
255 257 259 260 247 245 259 265 258 266 274 277 276 285 288 279 264 258 257 253 251 249 245 248 250 248 252 250 247 250 252 253 257 261 264 264 266 272 272 272 273 277 279
256 258 263 271 264 250 256 267 267 272 277 278 287 289 282 278 269 262 258 251 246 246 248 246 248 253 250 243 249 256 256 258 261 261 263 265 270 270 273 272 277 281 285
259 262 260 265 265 259 249 260 272 281 283 287 287 280 269 266 264 258 255 251 244 242 243 246 247 248 252 251 250 250 256 260 263 264 263 263 267 277 277 283 289 291 290
256 254 257 257 264 263 252 258 272 275 283 286 284 278 265 262 263 262 258 252 246 241 240 240 245 247 247 252 253 255 256 258 259 262 265 268 271 275 277 288 297 295 289
255 242 246 249 259 260 252 257 264 273 283 284 286 283 268 267 266 266 260 257 249 244 239 241 244 248 251 254 257 254 257 258 263 262 262 265 267 271 274 289 287 288 290
Height
3171 3170 3173 3174 3176 3176 3176 3176 3176 3175 3175 3175 3175 3175 3175 3175 3175 3175 3175 3176 3176 3177 3177 3178 3178 3179 3180 3179 3179 3180 3180 3181 3182 3183 3185 3185 3185 3185 3185 3185 3185 3185 3185
3171 3171 3173 3175 3176 3177 3178 3177 3177 3177 3176 3176 3177 3177 3177 3178 3177 3177 3178 3179 3179 3179 3180 3180 3181 3182 3182 3183 3183 3183 3183 3184 3184 3185 3186 3188 3188 3188 3188 3188 3189 3188 3188
3170 3171 3173 3175 3177 3178 3179 3179 3179 3179 3179 3178 3178 3179 3180 3180 3180 3180 3180 3181 3181 3181 3182 3183 3183 3183 3184 3185 3185 3186 3186 3187 3188 3188 3188 3189 3190 3190 3190 3191 3191 3191 3191
3170 3172 3174 3176 3177 3179 3180 3180 3181 3181 3181 3181 3181 3181 3182 3183 3183 3183 3183 3183 3184 3184 3185 3185 3186 3186 3186 3187 3188 3188 3188 3189 3190 3190 3190 3190 3191 3191 3192 3192 3192 3192 3193
3171 3172 3174 3176 3177 3179 3181 3182 3183 3183 3184 3184 3184 3184 3184 3184 3185 3185 3186 3186 3187 3187 3187 3187 3188 3189 3189 3189 3189 3190 3191 3192 3192 3192 3192 3192 3192 3192 3193 3193 3193 3194 3194
3172 3173 3175 3176 3179 3180 3181 3183 3184 3185 3185 3186 3187 3186 3186 3187 3188 3188 3189 3189 3189 3189 3189 3189 3190 3191 3192 3192 3192 3192 3193 3194 3194 3194 3194 3194 3193 3193 3194 3194 3195 3195 3195
3173 3174 3175 3177 3179 3180 3182 3183 3185 3186 3187 3187 3188 3188 3188 3188 3189 3190 3192 3192 3191 3192 3192 3192 3192 3193 3193 3194 3195 3194 3194 3194 3194 3195 3195 3195 3195 3195 3195 3195 3196 3196 3195
3175 3175 3176 3177 3178 3181 3182 3184 3185 3186 3187 3188 3188 3189 3190 3191 3191 3192 3193 3194 3194 3194 3194 3194 3195 3195 3194 3195 3196 3196 3195 3196 3196 3196 3196 3196 3196 3196 3196 3196 3196 3196 3196
3175 3176 3177 3178 3179 3180 3182 3184 3185 3186 3187 3188 3189 3189 3191 3192 3193 3193 3194 3195 3196 3196 3196 3196 3196 3197 3197 3196 3197 3197 3198 3197 3197 3198 3198 3198 3197 3196 3196 3196 3196 3196 3196
3175 3177 3177 3178 3179 3180 3182 3183 3184 3186 3186 3188 3189 3189 3191 3192 3194 3194 3194 3195 3196 3197 3197 3197 3197 3197 3198 3198 3199 3199 3200 3200 3200 3200 3200 3200 3199 3198 3197 3197 3197 3197 3196
3175 3176 3177 3178 3179 3180 3182 3182 3183 3184 3185 3187 3188 3189 3190 3192 3193 3194 3195 3196 3197 3197 3198 3198 3198 3198 3199 3200 3201 3201 3202 3202 3201 3202 3201 3201 3200 3198 3198 3198 3198 3197 3197
3174 3175 3177 3178 3179 3180 3181 3182 3183 3183 3184 3186 3187 3189 3190 3191 3192 3194 3195 3196 3196 3197 3198 3199 3199 3199 3200 3201 3201 3201 3202 3202 3203 3202 3201 3202 3201 3200 3199 3199 3198 3198 3197
3173 3174 3176 3178 3179 3179 3180 3181 3182 3183 3183 3184 3186 3187 3188 3190 3191 3192 3194 3195 3196 3196 3197 3198 3199 3199 3200 3200 3201 3201 3201 3202 3202 3203 3202 3201 3201 3200 3199 3198 3198 3197 3197
3172 3174 3174 3176 3177 3178 3179 3180 3181 3182 3183 3183 3184 3185 3186 3188 3189 3191 3192 3193 3195 3196 3196 3197 3197 3197 3198 3199 3199 3200 3200 3201 3201 3201 3202 3201 3201 3199 3198 3198 3197 3196 3196
3172 3172 3173 3174 3175 3177 3177 3178 3180 3180 3181 3182 3183 3184 3184 3186 3187 3188 3190 3191 3192 3193 3194 3195 3196 3196 3197 3197 3199 3199 3199 3199 3200 3200 3200 3199 3198 3198 3197 3196 3195 3194 3194
3169 3170 3170 3171 3172 3174 3175 3177 3178 3178 3179 3180 3181 3182 3183 3183 3184 3185 3186 3188 3189 3190 3192 3192 3193 3193 3194 3195 3195 3197 3197 3197 3197 3197 3197 3197 3195 3194 3193 3192 3192 3191 3190
3165 3167 3167 3168 3169 3171 3173 3174 3175 3176 3177 3178 3179 3180 3181 3181 3182 3182 3183 3184 3185 3186 3187 3188 3189 3190 3191 3192 3193 3194 3194 3194 3193 3194 3193 3192 3191 3190 3190 3190 3188 3188 3187
3161 3162 3163 3164 3166 3168 3169 3171 3172 3173 3174 3175 3176 3177 3177 3178 3179 3179 3179 3180 3180 3181 3182 3184 3184 3185 3186 3187 3189 3191 3190 3189 3189 3189 3189 3188 3187 3186 3186 3185 3184 3184 3183
3155 3157 3158 3159 3161 3164 3165 3166 3167 3168 3169 3171 3171 3172 3173 3173 3174 3175 3176 3176 3176 3176 3177 3179 3179 3179 3181 3182 3183 3184 3185 3185 3184 3184 3184 3183 3182 3181 3181 3180 3180 3179 3179
3149 3151 3154 3155 3156 3158 3159 3160 3161 3163 3165 3166 3167 3168 3168 3168 3169 3170 3171 3172 3172 3172 3172 3172 3174 3175 3176 3176 3177 3178 3177 3178 3178 3179 3178 3177 3177 3176 3175 3175 3173 3173 3172
3142 3145 3147 3150 3151 3152 3153 3154 3156 3158 3160 3162 3163 3163 3164 3163 3163 3163 3165 3166 3167 3167 3169 3169 3168 3169 3170 3171 3170 3170 3171 3172 3172 3173 3173 3172 3172 3171 3170 3170 3169 3167 3166
3139 3140 3142 3145 3146 3148 3149 3150 3151 3153 3153 3155 3155 3156 3157 3156 3156 3156 3156 3159 3161 3162 3163 3164 3165 3164 3165 3164 3164 3164 3164 3166 3166 3167 3167 3166 3166 3165 3164 3163 3162 3161 3161
3133 3134 3136 3138 3140 3142 3144 3145 3146 3147 3149 3149 3150 3150 3150 3149 3148 3148 3149 3151 3154 3155 3157 3158 3159 3160 3160 3159 3159 3159 3158 3158 3160 3160 3160 3160 3160 3160 3159 3158 3158 3156 3156
3129 3129 3130 3132 3134 3136 3137 3139 3140 3141 3142 3144 3143 3144 3143 3142 3141 3141 3141 3142 3144 3147 3149 3152 3153 3153 3153 3154 3153 3152 3153 3154 3153 3153 3154 3154 3153 3153 3152 3151 3150 3150 3149
3120 3121 3123 3125 3126 3129 3130 3132 3134 3134 3135 3136 3136 3136 3135 3135 3134 3133 3132 3133 3135 3137 3141 3143 3144 3145 3146 3146 3146 3146 3147 3147 3147 3146 3146 3147 3146 3145 3145 3145 3144 3142 3141
3111 3111 3114 3117 3119 3121 3124 3126 3128 3129 3129 3129 3128 3127 3127 3127 3126 3125 3124 3124 3127 3129 3132 3135 3137 3137 3138 3140 3139 3140 3140 3140 3140 3139 3139 3138 3140 3139 3140 3139 3138 3137 3134